{"data":{"norad_id":49290,"intl_designator":"2021-090M","name":"ONEWEB-0364","alt_names":[],"object_type":"PAYLOAD","status":"ACTIVE","operator":null,"country":"UK","launch_date":"2021-10-14","launch_site_code":"VOSTO","launch_vehicle":null,"mission":null,"orbit_class":"UNKNOWN","rcs_meters":null,"size_class":null,"mass_kg":null,"dimensions":null,"purposes":["comms"],"wikipedia_slug":null,"has_3d_model":false,"image_url":null,"decayed_at":null,"tle_current":{"epoch":"2026-09-19T23:23:11.954688Z","epoch_age_seconds":71523,"freshness":"FRESH","line1":"1 49290U 21090M   26262.97444392 -.00000005  00000+0 -45184-4 0  9998","line2":"2 49290  87.9141 255.5370 0001967  86.9106 273.2252 13.20769229243953","mean_motion":13.20769229,"eccentricity":0.0001967,"inclination_deg":87.9141,"raan_deg":255.537,"arg_perigee_deg":86.9106,"mean_anomaly_deg":273.2252,"bstar":-4.5184e-5,"rev_number":24395,"period_min":109.02737347161,"perigee_km":1180.2961964839,"apogee_km":1183.2702691035,"semimajor_km":7559.9202327937,"source":"CELESTRAK","updated_at":"2026-09-20T09:00:44.670871Z"}}}